    Orbital elements:
    2015 DN215                                          PHA, Earth MOID = 0.0195 AU
    Epoch 2019 Apr. 27.0 TT = JDT 2458600.5                 MPC
    M 340.83094              (2000.0)            P               Q
    n   0.21749656     Peri.   80.69886     +0.10622701     -0.99428940
    a   2.7384267      Node     3.25597     +0.82700429     +0.08263966
    e   0.7483578      Incl.   10.36481     +0.55206858     +0.06752247
    P   4.53           H   19.8           G   0.15           U   3
    Residuals in seconds of arc
    140730 F51  0.2-  0.0     150309 H21  0.0   0.2-    150318 246  0.2+  0.2+
    140730 F51  0.2+  0.0     150309 H21  0.1+  0.1-    150318 246  0.1+  0.1-
    140730 F51  0.0   0.0     150309 H21  0.0   0.1-    150318 246  0.1+  0.1+
    150222 C51  0.1+  0.2+    150309 H21  0.1+  0.0     150318 A53  0.6+  0.1+
    150222 C51  0.1-  0.1-    150309 H21  0.1+  0.2-    150318 A53  0.7+  0.5+
    150226 703  0.1-  0.1-    150310 D29  0.3+  0.5-    150318 A53  0.9+  1.1-
    150226 703  0.4-  0.0     150310 D29  0.3+  0.3-    150319 160  0.0   0.2-
    150226 703  0.4+  0.2-    150310 D29  0.0   0.5-    150319 160  0.3-  0.6-
    150226 703  0.1-  0.1+    150311 160  0.0   0.5-    150319 160  0.3-  0.2-
    150226 703  0.9+  0.0     150311 160  0.1-  0.2-    150319 246  0.2+  0.2+
    150226 703  0.2-  0.3+    150311 160  0.1-  0.3-    150319 246  0.0   0.1+
    150226 703  0.1-  0.2+    150311 W88  0.3-  0.2-    150319 246  0.1+  0.1+
    150226 703  0.1+  0.2+    150311 W88  0.4-  0.1-    150319 246  0.0   0.1+
    150226 300  0.6+  0.0     150311 W88  0.3-  0.2-    150319 246  0.0   0.0
    150226 300  0.5+  0.1+    150311 A48  0.8-  0.5+    150319 246  0.1+  0.0
    150226 300  0.9+  0.1+    150311 A48  0.0   0.4-    150319 246  0.1+  0.0
    150226 300  0.6+  0.4+    150311 A48  0.3+  0.4+    150319 246  0.0   0.1+
    150226 300  0.6+  0.1+    150311 A48  0.0   0.3-    150319 160  0.1-  0.4+
    150226 300  0.5+  0.1-    150312 204  0.1-  0.0     150319 160  0.1+  0.7+
    150226 300  0.5+  0.1-    150312 204  0.1-  0.0     150319 160  0.1-  0.0
    150226 300  0.6+  0.1+    150312 204  0.2-  0.2-    150320 A48  0.1-  0.3-
    150226 246  0.3+  0.3+    150312 204  0.2-  0.0     150320 A48  0.4+  0.2+
    150226 246  0.1-  0.5+    150312 204  0.3-  0.0     150320 A48  0.2+  0.2-
    150226 246  0.1+  0.3+    150312 H21  0.1-  0.2+    150320 A48  0.3-  0.2-
    150226 246  0.1+  0.3-    150312 H21  0.1-  0.2+    150320 160  2.6+  0.0
    150226 246  0.3+  0.1-    150312 H21  0.1+  0.2+    150320 160  0.8+  0.3+
    150226 246  0.2-  0.1+    150312 H21  0.1+  0.1-    150320 160  0.4+  0.2-
    150226 246  0.7-  0.0     150312 H21  0.1-  0.1-    150321 703  1.1+  0.4+
    150227 J95  0.1+  0.0     150312 160  0.5+  0.2+    150321 703  0.0   0.1+
    150227 J95  0.2+  0.1-    150312 160  0.2+  0.1+    150321 703  0.0   0.2+
    150227 J95  0.0   0.1-    150312 160  0.1-  0.1-    150321 D29  0.0   0.9+
    150227 H36  0.2-  0.1-    150313 705  0.4+  0.3+    150321 D29  0.0   0.6+
    150227 H36  0.5-  0.1-    150313 705  0.7+  0.4+    150321 D29  0.2+  0.6+
    150227 H36  0.4-  0.0     150313 705  0.6+  0.5+    150322 H21  0.2-  0.0
    150227 H36  0.2-  0.1-    150315 I41  0.0   0.0     150322 H21  0.0   0.2-
    150227 G84  1.2-  0.3-    150315 H21  0.2+  0.1-    150322 H21  0.0   0.2+
    150227 G84  1.2-  0.5-    150315 H21  0.1+  0.3-    150322 H21  0.1+  0.1-
    150227 G84  1.3-  0.4+    150315 I41  0.1-  0.1-    150322 H21  0.1+  0.2+
    150227 G84  0.9-  0.2-    150315 G45  0.3+  0.1+    150322 H21  0.1-  0.2+
    150227 G96  0.0   0.1-    150315 H21  0.1+  0.1-    150322 H21  0.1-  0.2-
    150227 G96  0.2+  0.2-    150315 G45  0.1-  0.0     150322 H21  0.1-  0.0
    150227 G96  0.1+  0.0     150315 G45  0.2+  0.0     150322 H21  0.1-  0.3+
    150227 G96  0.0   0.1-    150315 G45  0.0   0.3-    150322 560  0.2-  0.4-
    150227 C41  0.1+  0.3-    150315 I41  0.2-  0.2-    150322 560  0.3-  0.3-
    150227 C41  0.3+  0.1+    150316 H45  0.2+  0.0     150322 560  0.3-  0.2-
    150227 C41  0.1+  0.1+    150316 H45  0.1+  0.1-    150323 246  0.1-  0.1+
    150228 C43  0.2+  0.0     150316 H45  0.2+  0.0     150323 246  0.2-  0.0
    150228 C43  0.1+  0.1+    150316 H45  0.0   0.0     150323 246  0.3+  0.2-
    150228 C43  0.0   0.1+    150316 H45  0.2-  0.1-    150323 246  0.1-  0.1-
    150228 C43  0.1+  0.0     150316 H45  0.1+  0.0     150323 246  0.0   0.2-
    150228 C43  0.1+  0.0     150316 H45  0.1-  0.1-    150323 246  0.0   0.1-
    150301 C47  0.1+  0.1-    150316 H45  0.0   0.1-    150323 246  0.2-  0.1-
    150301 C47  0.1+  0.2+    150316 H21  0.3+  0.1+    150323 246  0.2+  0.0
    150301 C47  0.0   0.1-    150316 H21  0.0   0.0     150324 G48  0.2-  0.2-
    150301 C47  0.1+  0.0     150316 H21  0.3-  0.1-    150324 G48  0.4-  0.2-
    150301 C47  0.1+  0.0     150316 G45  0.3-  0.1-    150324 G48  0.1-  0.1-
    150301 C47  0.1+  0.0     150316 G45  0.4+  0.5-    150324 G48  0.9-  0.5-
    150301 C47  0.4+  0.1+    150316 G45  0.2-  0.5-    150324 G48  0.5-  1.5-
    150301 711  0.8-  0.3+    150316 G45  0.4-  0.3-    150327 H21  0.1-  0.1-
    150301 711  0.7-  0.5+    150316 G96  0.1+  0.0     150327 H21  0.1+  0.1-
    150301 711  0.4-  0.5+    150316 G96  0.2+  0.2+    150327 H21  0.1+  0.2-
    150301 711  0.1-  0.4+    150316 G45  0.3-  0.2+    150327 H21  0.0   0.4-
    150301 Q65  0.9-  0.3-    150316 703  0.0   0.3+    150327 H21  0.0   0.3-
    150301 Q65  0.8-  0.1+    150316 G96  0.0   0.1+    150328 246  0.6-  0.8-
    150301 Q65  1.0-  0.7-    150316 703  0.1-  0.3+    150328 246  0.0   0.5-
    150301 Q65  0.1-  0.0     150316 G96  0.1+  0.1+    150328 246  1.5+  0.2+
    150301 300  0.2-  0.4+    150316 703  0.0   0.2+    150328 246  0.8+  0.0
    150301 300  0.4+  0.4-    150316 703  0.2-  0.2+    150328 246  0.1+  0.6-
    150301 300  0.1+  0.1+    150317 H21  1.8+  0.4+    150328 246  0.2+  0.1+
    150301 300  0.0   0.1+    150317 H21  1.3+  0.2+    150329 H21  0.2+  0.3-
    150301 300  0.1+  0.1+    150317 H21  0.3+  0.3-    150329 H21  0.0   0.2-
    150301 300  0.1+  0.2+    150317 H21  0.1+  0.3-    150329 H21  0.1+  0.0
    150301 300  0.4+  0.2-    150317 H21  0.2+  0.1-    150329 H21  0.0   0.1-
    150301 300  0.0   0.6+    150317 H21  0.0   0.1-    150329 H21  0.1+  0.1+
    150301 300  0.5+  0.3+    150317 H45  0.3+  0.1+    150330 I15  0.1-  0.1+
    150304 W88  0.3-  0.1-    150317 H45  0.1+  0.2+    150330 I15  0.0   0.1-
    150304 W88  0.2-  0.0     150317 H45  0.1+  0.2+    150330 I15  0.3-  0.6-
    150304 W88  0.2-  0.3-    150317 H45  0.2+  0.1+    150330 H21  0.4-  1.0-
    150304 W88  0.2-  0.2-    150317 H45  0.4+  0.4+    150330 H21  0.2-  1.0+
    150304 W88  0.2-  0.2-    150317 H45  0.2-  0.6+    150330 H21  0.0   0.2-
    150304 W88  0.3-  0.1+    150317 246  0.7-  0.4+    150330 H21  0.2-  0.2+
    150304 W88  0.2-  0.0     150317 246  0.2-  0.4+    150330 H21  0.2+  0.3-
    150307 C47  0.2-  0.2-    150317 246  0.3-  0.3-    150331 H21  0.2-  0.1-
    150307 C47  0.0   0.1-    150317 246  0.1+  0.1+    150331 H21  0.5-  0.3+
    150307 C47  0.0   0.1-    150317 246  0.2-  0.4+    150331 H21  0.5-  0.0
    150307 C47  0.3-  0.4-    150317 246  0.4-  0.1+    150331 H21  0.1-  0.3+
    150307 C47  0.0   0.3-    150317 246  0.1+  0.2+    150331 H21  0.2-  0.2-
    150307 C47  0.1+  0.1-    150318 106  0.1-  0.4-    150408 204  0.3+  0.4-
    150308 160  0.4+  0.3-    150318 106  0.3-  0.2-    150408 204  0.3-  0.1-
    150308 160  0.2-  0.2+    150318 106  0.1-  0.2-    150408 204  0.3-  0.3+
    150308 113  0.2-  0.6+    150318 106  0.3-  0.0     150411 H21  0.2+  0.3+
    150308 113  0.4+  0.2-    150318 J04  0.3-  0.4+    150411 H21  0.1+  0.0
    150308 113  0.2-  0.4+    150318 J04  0.1-  0.4+    150411 H21  0.1+  0.2-
    150308 A48  0.8-  0.8-    150318 J04  0.1+  0.4+    150411 703  0.9-  0.9+
    150308 A48  0.1-  0.3-    150318 J04  0.3+  0.5+    150411 703  0.0   1.1+
    150308 A48  0.2+  0.1+    150318 246  0.1+  0.0     150411 703  2.8-  1.4+
    150308 A48  0.5-  0.0     150318 246  0.1-  0.1-    150417 H21  0.1-  0.1-
    150308 160  0.4+  0.1+    150318 246  0.3-  0.2+    150417 H21  0.0   0.1-
    150308 160  0.0   0.2-    150318 246  0.0   0.3+    150417 H21  0.1-  0.0
    150308 160  0.2+  0.4+    150318 246  0.0   0.2+
    
    Ephemeris:
    2015 DN215               a,e,i = 2.74, 0.75, 10                  q = 0.6891
    Date    TT    R. A. (2000) Decl.     Delta      r     Elong.  Phase     V
    2019 02 21    21 43 53.9 -19 08 40   3.1577  2.1963    11.2     5.0    24.4
    ...
    2019 03 08    22 12 54.7 -16 13 56   2.9725  2.0528    18.2     8.7    24.3
    ...
    2019 03 16    22 29 06.5 -14 29 29   2.8632  1.9736    21.7    10.7    24.2
    ...
    2019 03 22    22 41 38.5 -13 05 27   2.7773  1.9130    24.2    12.3    24.2
    2019 03 23    22 43 45.9 -12 50 57   2.7628  1.9028    24.6    12.6    24.2
    2019 03 24    22 45 54.1 -12 36 17   2.7481  1.8926    25.0    12.9    24.1
    ...
    2019 03 30    22 58 57.3 -11 05 05   2.6588  1.8305    27.4    14.5    24.1
    ...
    2019 04 07    23 17 04.5 -08 54 18   2.5366  1.7461    30.2    16.8    23.9
    ...
    2019 04 22    23 53 48.7 -04 17 09   2.3035  1.5826    34.6    21.1    23.6
    
    A. U. Tomatic                (C) Copyright 2019 MPC           M.P.E.C. 2019-F63
    

    Read MPEC 2019-F62 Read MPEC 2019-F64


    MPEC number:

    Enter an MPEC number in one of the following forms:

    • 1997-B01 (the full form)
    • J97B01 (the packed version of the full form)
    • B01 (the abbreviated form)